ARG1406 SABE-SAME

Flight info

Callsign ARG1406
Flight time N/A
Altitude 32000
Route PAL9 NEPIS DCT NIN UL405 PAPIR
Aircraft B738/M-SDE2E3FGHIRWXY/LB1

Departure

Time N/A
Airport Aeroparque Jorge Newbery (SABE)

Arrival

Time 2026-04-26 14:34
Airport Governor Francisco Gabrielli International Airport (SAME)
Time Latitude Longitude Altitude Speed Heading
2026-04-26 14:04 -33.44918 -66.51197 32155 ft 432 kts 287°
2026-04-26 14:05 -33.42769 -66.57888 32155 ft 432 kts 287°
2026-04-26 14:05 -33.40874 -66.64657 32156 ft 430 kts 282°
2026-04-26 14:06 -33.39211 -66.71555 32155 ft 430 kts 282°
2026-04-26 14:06 -33.37549 -66.78396 32155 ft 430 kts 283°
2026-04-26 14:07 -33.35874 -66.85225 32155 ft 430 kts 283°
2026-04-26 14:07 -33.34186 -66.92069 32128 ft 428 kts 283°
2026-04-26 14:07 -33.33339 -66.95487 31681 ft 424 kts 283°
2026-04-26 14:08 -33.32504 -66.98851 30856 ft 425 kts 283°
2026-04-26 14:08 -33.31669 -67.02209 30280 ft 420 kts 283°
2026-04-26 14:08 -33.30846 -67.05510 29782 ft 413 kts 282°
2026-04-26 14:08 -33.30034 -67.08767 29219 ft 408 kts 282°
2026-04-26 14:09 -33.29231 -67.11981 28675 ft 403 kts 282°
2026-04-26 14:09 -33.28437 -67.15157 28135 ft 397 kts 282°
2026-04-26 14:09 -33.27649 -67.18305 27600 ft 391 kts 283°
2026-04-26 14:09 -33.26877 -67.21390 27068 ft 385 kts 283°
2026-04-26 14:10 -33.26113 -67.24436 26545 ft 379 kts 283°
2026-04-26 14:10 -33.25341 -67.27415 26029 ft 374 kts 285°
2026-04-26 14:10 -33.24527 -67.30324 25520 ft 369 kts 286°
2026-04-26 14:10 -33.23708 -67.33196 25014 ft 364 kts 287°
2026-04-26 14:11 -33.22092 -67.38857 24019 ft 355 kts 287°
2026-04-26 14:11 -33.21312 -67.41592 23534 ft 350 kts 288°
2026-04-26 14:11 -33.20527 -67.44349 23044 ft 346 kts 288°
2026-04-26 14:12 -33.19759 -67.47044 22561 ft 344 kts 288°
2026-04-26 14:12 -33.18982 -67.49771 22085 ft 350 kts 289°
2026-04-26 14:12 -33.18204 -67.52500 21620 ft 346 kts 289°
2026-04-26 14:12 -33.17446 -67.55155 21499 ft 332 kts 289°
2026-04-26 14:13 -33.15977 -67.60295 20535 ft 329 kts 290°
2026-04-26 14:13 -33.15242 -67.62864 20055 ft 328 kts 290°
2026-04-26 14:13 -33.14499 -67.65457 19524 ft 328 kts 291°
2026-04-26 14:14 -33.13758 -67.68041 19022 ft 327 kts 291°
2026-04-26 14:14 -33.13019 -67.70610 18525 ft 327 kts 291°
2026-04-26 14:14 -33.12230 -67.73149 18029 ft 325 kts 294°
2026-04-26 14:14 -33.11274 -67.75595 17546 ft 324 kts 300°
2026-04-26 14:15 -33.10180 -67.77820 17101 ft 322 kts 303°
2026-04-26 14:15 -33.08944 -67.80103 16607 ft 321 kts 304°
2026-04-26 14:15 -33.07715 -67.82308 16284 ft 315 kts 304°
2026-04-26 14:15 -33.06513 -67.84449 16089 ft 307 kts 304°
2026-04-26 14:16 -33.05333 -67.86548 15629 ft 306 kts 304°
2026-04-26 14:16 -33.04155 -67.88641 15025 ft 305 kts 304°
2026-04-26 14:16 -33.02977 -67.90733 14474 ft 303 kts 304°
2026-04-26 14:16 -33.01812 -67.92800 13897 ft 302 kts 304°
2026-04-26 14:17 -33.00650 -67.94863 13333 ft 301 kts 304°
2026-04-26 14:17 -32.99489 -67.96922 12942 ft 299 kts 304°
2026-04-26 14:17 -32.98334 -67.98968 12532 ft 300 kts 304°
2026-04-26 14:17 -32.97176 -68.01020 12140 ft 299 kts 304°
2026-04-26 14:18 -32.96022 -68.03063 11773 ft 297 kts 303°
2026-04-26 14:18 -32.94867 -68.05107 11405 ft 296 kts 303°
2026-04-26 14:18 -32.93709 -68.07150 10775 ft 304 kts 303°
2026-04-26 14:18 -32.92538 -68.09214 10511 ft 297 kts 303°
2026-04-26 14:19 -32.91408 -68.11204 10417 ft 286 kts 303°
2026-04-26 14:19 -32.90313 -68.13131 10242 ft 279 kts 303°
2026-04-26 14:19 -32.89236 -68.15026 9951 ft 277 kts 303°
2026-04-26 14:19 -32.88167 -68.16908 9638 ft 275 kts 303°
2026-04-26 14:20 -32.87090 -68.18801 9319 ft 274 kts 303°
2026-04-26 14:20 -32.86025 -68.20671 9001 ft 273 kts 303°
2026-04-26 14:20 -32.84966 -68.22532 8680 ft 272 kts 302°
2026-04-26 14:20 -32.83911 -68.24384 8363 ft 272 kts 302°
2026-04-26 14:21 -32.82859 -68.26230 8031 ft 271 kts 302°
2026-04-26 14:21 -32.81803 -68.28085 7659 ft 273 kts 302°
2026-04-26 14:21 -32.80743 -68.29946 7322 ft 272 kts 302°
2026-04-26 14:21 -32.79686 -68.31799 7069 ft 269 kts 302°
2026-04-26 14:22 -32.78645 -68.33623 6817 ft 267 kts 302°
2026-04-26 14:22 -32.77608 -68.35441 6568 ft 267 kts 302°
2026-04-26 14:22 -32.76568 -68.37263 6318 ft 267 kts 302°
2026-04-26 14:22 -32.75527 -68.39087 6069 ft 267 kts 302°
2026-04-26 14:23 -32.74497 -68.40887 5970 ft 261 kts 302°
2026-04-26 14:23 -32.73494 -68.42640 5872 ft 252 kts 302°
2026-04-26 14:23 -32.72514 -68.44352 5701 ft 248 kts 302°
2026-04-26 14:23 -32.71552 -68.46035 5452 ft 247 kts 302°
2026-04-26 14:24 -32.70589 -68.47719 5483 ft 252 kts 302°
2026-04-26 14:24 -32.69588 -68.49469 5479 ft 255 kts 302°
2026-04-26 14:24 -32.68612 -68.51170 5472 ft 245 kts 302°
2026-04-26 14:24 -32.67678 -68.52796 5480 ft 235 kts 301°
2026-04-26 14:25 -32.66764 -68.54390 5484 ft 233 kts 301°
2026-04-26 14:25 -32.65843 -68.55996 5483 ft 234 kts 301°
2026-04-26 14:25 -32.64931 -68.57587 5483 ft 234 kts 301°
2026-04-26 14:25 -32.64094 -68.59220 5341 ft 232 kts 286°
2026-04-26 14:26 -32.64091 -68.61030 5022 ft 219 kts 231°
2026-04-26 14:26 -32.64934 -68.62341 5577 ft 186 kts 231°
2026-04-26 14:26 -32.65564 -68.63750 5917 ft 199 kts 251°
2026-04-26 14:26 -32.65707 -68.65400 6431 ft 207 kts 271°
2026-04-26 14:27 -32.65536 -68.67158 6575 ft 215 kts 276°
2026-04-26 14:27 -32.65324 -68.68824 6655 ft 194 kts 279°
2026-04-26 14:27 -32.65034 -68.70341 6831 ft 189 kts 280°
2026-04-26 14:27 -32.64847 -68.71878 6853 ft 188 kts 271°
2026-04-26 14:28 -32.64820 -68.73421 6753 ft 178 kts 266°
2026-04-26 14:28 -32.64851 -68.74753 6869 ft 153 kts 262°
2026-04-26 14:28 -32.65022 -68.76025 6548 ft 161 kts 256°
2026-04-26 14:28 -32.65263 -68.77320 6292 ft 158 kts 254°
2026-04-26 14:29 -32.65677 -68.78486 6045 ft 155 kts 229°
2026-04-26 14:29 -32.66525 -68.79217 5764 ft 154 kts 198°
2026-04-26 14:29 -32.67583 -68.79342 5488 ft 153 kts 177°
2026-04-26 14:29 -32.68603 -68.79198 5349 ft 148 kts 172°
2026-04-26 14:30 -32.69640 -68.79036 5015 ft 153 kts 174°
2026-04-26 14:30 -32.70688 -68.78968 4814 ft 150 kts 178°
2026-04-26 14:30 -32.71724 -68.78936 4520 ft 148 kts 180°
2026-04-26 14:30 -32.72745 -68.78962 4188 ft 149 kts 183°
2026-04-26 14:31 -32.73766 -68.79062 3870 ft 148 kts 181°
2026-04-26 14:31 -32.74782 -68.79134 3616 ft 146 kts 182°
2026-04-26 14:31 -32.75768 -68.79204 3413 ft 142 kts 179°
2026-04-26 14:31 -32.76755 -68.79243 3155 ft 144 kts 179°
2026-04-26 14:32 -32.77738 -68.79279 3090 ft 140 kts 177°
2026-04-26 14:32 -32.78729 -68.79269 2930 ft 144 kts 177°
2026-04-26 14:32 -32.79724 -68.79265 2830 ft 143 kts 178°
2026-04-26 14:32 -32.80715 -68.79283 2676 ft 145 kts 178°
2026-04-26 14:33 -32.81747 -68.79278 2374 ft 151 kts 176°
2026-04-26 14:33 -32.82727 -68.79283 2330 ft 128 kts 177°
2026-04-26 14:33 -32.83496 -68.79290 2330 ft 92 kts 176°
2026-04-26 14:33 -32.84015 -68.79285 2329 ft 50 kts 178°
2026-04-26 14:34 -32.84247 -68.79310 2328 ft 30 kts 208°
2026-04-26 14:34 -32.84211 -68.79450 2328 ft 20 kts 345°
2026-04-26 14:34 -32.84160 -68.79466 2329 ft 19 kts 346°